AirNav   Air Wisconsin Up To $57,000 Bonus
 
 962 users online  

2O8 Hinton Municipal Airport
Hinton, Oklahoma, USA

GOING TO HINTON?


FAA INFORMATION EFFECTIVE 22 APRIL 2021

Location

FAA Identifier: 2O8
Lat/Long: 35-30-26.0000N 098-20-33.2000W
35-30.433333N 098-20.553333W
35.5072222,-98.3425556
(estimated)
Elevation: 1587 ft. / 483.7 m (surveyed)
Variation: 07E (1995)
From city: 2 miles NE of HINTON, OK
Time zone: UTC -5 (UTC -6 during Standard Time)
Zip code: 73047

Airport Operations

Airport use: Open to the public
Activation date: 05/1998
Control tower: no
ARTCC: FORT WORTH CENTER
FSS: MC ALESTER FLIGHT SERVICE STATION
NOTAMs facility: MLC (NOTAM-D service available)
Attendance: MON-SAT 0900-1700, ALL SUN 1300-1700
Wind indicator: lighted
Segmented circle: yes
Lights: MIRLS RY 17/35 PRESET LOW INTENSITY KEY TO INCREASE - CTAF.
Beacon: white-green (lighted land airport)
Operates sunset to sunrise.

Airport Communications

CTAF/UNICOM: 123.05
WX AWOS-3PT at OJA (16 nm W): 118.575 (580-772-7020)
WX AWOS-3 at RQO (17 nm E): 118.475 (405-262-0087)
  • APCH/DEP CTL SVC PRVDD BY FORT WORTH ARTCC (ZFW) ON FREQS 128.4/269.37 (CLINTON-SHERMAN RCAG).

Nearby radio navigation aids

VOR radial/distance  VOR name  Freq  Var
IFIr214/24.3KINGFISHER VORTAC114.7009E
PWAr259/34.0WILEY POST VOR/DME113.4008E
IRWr277/36.9WILL ROGERS VORTAC114.1007E

Airport Services

Fuel available: 100LL
FUEL AVBL 24 HRS WITH AUTOMATED CREDIT CARD SYSTEM.
Parking: tiedowns
Airframe service: NONE
Powerplant service: NONE
Bottled oxygen: NONE
Bulk oxygen: NONE

Runway Information

Runway 17/35

Dimensions: 4001 x 60 ft. / 1220 x 18 m
Surface: asphalt, in good condition
Runway edge lights: medium intensity
RUNWAY 17  RUNWAY 35
Latitude: 35-30.762542N35-30.103118N
Longitude: 098-20.557277W098-20.550350W
Elevation: 1577.4 ft.1586.9 ft.
Traffic pattern: leftleft
Runway heading: 173 magnetic, 180 true353 magnetic, 360 true
Markings: nonprecision, in good conditionnonprecision, in good condition
Visual slope indicator: 2-light PAPI on left (3.00 degrees glide path)
PAPI OTS INDEFLY.
2-light PAPI on left (3.00 degrees glide path)
PAPI OTS INDEFLY.
Touchdown point: yes, no lightsyes, no lights

Airport Ownership and Management from official FAA records

Ownership: Publicly-owned
Owner: TOWN OF HINTON
PO BOX 159
HINTON, OK 73047
Phone 405-542-3253
Manager: DIEDRE WELLMAN
PO BOX 67, 611 E AIRPORT RD.
HINTON, OK 73047
Phone 405-542-3993
FBO/AMGR.

Airport Operational Statistics

Aircraft based on the field: 20
Single engine airplanes: 10
Multi engine airplanes: 1
Gliders airplanes: 9
    
Aircraft operations: avg 67/week *
55% transient general aviation
45% local general aviation
* for 12-month period ending 05 March 2018

Additional Remarks

GLIDER ACTIVITY ON & INVOF ARPT.
FOR CD CTC FORT WORTH ARTCC AT 817-858-7584.

Instrument Procedures

NOTE: All procedures below are presented as PDF files. If you need a reader for these files, you should download the free Adobe Reader.

NOT FOR NAVIGATION. Please procure official charts for flight.
FAA instrument procedures published for use from 22 April 2021 at 0901Z to 20 May 2021 at 0900z.

 
IAPs - Instrument Approach Procedures
RNAV (GPS) RWY 17   download (197KB)
RNAV (GPS) RWY 35   download (203KB)
NOTE: Special Take-Off Minimums/Departure Procedures apply   download (131KB)

Other nearby airports with instrument procedures:

KOJA - Thomas P Stafford Airport (16 nm W)
KRQO - El Reno Regional Airport (17 nm E)
KJWG - Watonga Regional Airport (22 nm N)
1O4 - Thomas Municipal Airport (23 nm NW)
KRCE - Clarence E Page Municipal Airport (25 nm E)
 
Loc | Ops | Rwys | IFR | FBO | Links
Com | Nav | Svcs | Stats | Notes
Area around 2O8 (Hinton Municipal Airport)
 
Road maps at: MapQuest Bing Google
 
Aerial photo
WARNING: Photo may not be current or correct
Aerial photo of 2O8 (Hinton Municipal Airport)
Photo by Jamie Szendrey

Do you have a better or more recent aerial photo of Hinton Municipal Airport that you would like to share? If so, please send us your photo.

 
Sectional chart

 
Airport distance calculator
Flying to Hinton Municipal Airport? Find the distance to fly.

From to 2O8

Sunrise and sunset
Times for 15-May-2021
 Local
(UTC-5)
 Zulu
(UTC)
Morning civil twilight06:0111:01
Sunrise06:3011:30
Sunset20:3001:30
Evening civil twilight20:5801:58

Current date and time
Zulu (UTC)  16-May-2021 00:09:36
Local (UTC-5)  15-May-2021 19:09:36
 
METAR
KOJA 
16nm W 
152355Z AUTO 17016G24KT 10SM SCT035 BKN050 BKN075 24/17 A2994 RMK AO2 T02440173 10266 20230 402660147
KRQO 
17nm E 
152355Z AUTO 16012KT 10SM SCT033 SCT045 OVC075 24/18 A2997 RMK AO2 T02380176 10266 20231 402660145
KJWG 
22nm N 
152355Z AUTO 17012G20KT 10SM SCT034 25/17 A2995 RMK AO2 T02500172 10264 20239 402640151
KRCE 
25nm E 
152355Z AUTO 15013G18KT 10SM SCT035 BKN044 BKN060 24/17 A2995 RMK AO2
KCLK 
29nm W 
152355Z AUTO 16016G20KT 10SM SCT035 SCT042 SCT050 24/17 A2993 RMK AO2
KCHK 
31nm SE 
152355Z AUTO 15013G16KT 10SM SCT034 SCT055 BKN075 24/18 A2993 RMK AO2 T02400178 10260 20222 402600148
KHSD 
32nm E 
152355Z AUTO 10SM A2995 RMK A01
TAF
KOKC 
37nm E 
152036Z 1521/1618 17014G21KT P6SM SCT035 BKN050 FM160000 16013KT P6SM SCT050 BKN250 FM160600 15009KT P6SM OVC015 PROB30 1606/1612 TSRA BKN007CB FM161200 16012G20KT 4SM TSRA OVC005CB
KCSM 
43nm W 
152040Z 1521/1618 17014G22KT P6SM SCT035 BKN250 FM160600 18010KT P6SM OVC025 PROB30 1606/1612 4SM -TSRA BKN007CB FM161200 16009G16KT P6SM OVC006 PROB30 1612/1617 4SM TSRA OVC004CB
NOTAMs
Click for the latest NOTAMs
NOTAMs are issued by the DoD/FAA and will open in a separate window not controlled by AirNav.

 

 
 

FBO, Fuel Providers, and Aircraft Ground Support

  
 Business Name 
 
 Contact 
 
 Services / Description 
 
Fuel Prices
 
Comments
  
Hinton Airport 405-542-3993 Airport management, Aviation fuel, Aircraft parking (ramp or tiedown), Courtesy transportation, Public telephone, Internet access, Restrooms, Showers

More info about Hinton Airport
Phillips 66
100LL
SS $3.65 
 Updated 11-May-2021
 
   5 read write
SS=Self service
Update Fuel Prices
 

Would you like to see your business listed on this page?

 If your business provides an interesting product or service to pilots, flight crews, aircraft, or users of the Hinton Municipal Airport, you should consider listing it here.  To start the listing process, click on the button below
 
Add a business
 

Other Pages about Hinton Municipal Airport

Mid Air Collision Avoidance Chart
 
Update a link
 
Copyright © AirNav, LLC. All rights reserved. Privacy Policy  Contact